Location: Kershaw
(34.5481°N, 80.5823°W)
Time: 23:30:01
(UTC+00:00)

Transit 4A - Pass Details

Date: 13 October 2022
Orbit: 871 x 972 km, 66.8° (Epoch: 09 December)

Event Time Altitude Azimuth Distance (km) Brightness Sun altitude
Rises 10:29:36 0° 331° (NNW) 3,471 10.6 -12.5°
Reaches altitude 10° 10:32:06 10° 329° (NNW) 2,525 9.9 -11.9°
Maximum altitude 10:37:54 73° 246° (WSW) 910 7.7 -10.7°
Drops below altitude 10° 10:43:41 10° 163° (SSE) 2,520 10.4 -9.6°
Sets 10:46:10 0° 161° (SSE) 3,464 11.2 -9.0°
